User: anonymous   Login
Location: Unspecified
(0.0000°N, 0.0000°E)
Time: 14:47:18
(UTC+00:00)
Language:

AO-73 - Orbit

View from above orbital plane
View from above orbital plane
View from above satellite
View from above satellite

Ground track
Ground track

The orbit data is extracted from the following two-line orbital elements,

1 39444U 13066AE  21267.92364229  .00000569  00000-0  75181-4 0  9991
2 39444  97.5931 249.5301 0057308 183.3301 176.7540 14.82524429422173
Epoch (UTC): 24 September 2021 22:10:02
Eccentricity: 0.0057308
inclination: 97.5931°
perigee height: 581 km
apogee height: 661 km
right ascension of ascending node: 249.5301°
argument of perigee: 183.3301°
revolutions per day: 14.82524429
mean anomaly at epoch: 176.7540°
orbit number at epoch: 42217

The dashed part of the orbit path shows where the satellite is in the earth's shadow,  

DLR